[Date Prev][Date Next][Thread Prev][Thread Next] - [Date Index][Thread Index][Author Index]
2 Line ISS Keps 2-25
- Subject: [sarex] 2 Line ISS Keps 2-25
- From: "Dave Larsen PhD" <doc@xxxxxxxxxxx>
- Date: Fri, 24 Feb 2006 18:58:44 -0800
ISS
1 25544U 98067A 06055.74026620 .00011804 00000-0 85977-4 0 4149
2 25544 051.6436 045.8520 0008350 294.5545 062.6318 15.73795905415435
----
Via the sarex mailing list at AMSAT.ORG courtesy of AMSAT-NA.
To unsubscribe, send "unsubscribe sarex" to Majordomo@amsat.org
AMSAT Home